Dewpoint
49 45 42 42 42 39 37 32 33 31 28 27 26 26 27 28 28 26 29 34 36 37 40 41 41 41 40 41 41 43 46 50 53 56 56 56 57 58 58 59 59 59 58 58
46 41 43 43 42 41 36 32 31 31 30 28 28 27 28 28 26 25 30 34 36 37 39 40 40 40 40 40 40 41 42 45 52 55 57 57 58 57 55 52 50 51 51 52
39 43 43 43 39 39 36 35 35 34 31 29 27 26 27 25 26 29 33 35 37 37 38 39 40 40 41 40 41 41 41 41 42 46 49 49 49 47 46 46 44 45 45 43
43 45 44 42 41 40 39 35 34 31 29 25 27 24 25 24 25 29 32 35 37 38 40 40 40 40 40 41 41 41 42 42 42 42 42 42 42 42 43 43 43 42 43 43
41 43 44 42 41 42 40 36 35 31 27 25 25 24 24 23 24 29 32 34 37 38 39 40 40 40 41 41 41 41 42 42 42 42 42 42 41 42 42 41 39 40 40 41
39 44 44 44 43 40 37 32 28 27 25 24 25 24 23 23 23 28 31 32 36 38 40 40 40 40 40 41 41 41 42 42 42 41 41 41 39 38 37 38 37 38 38 38
36 42 41 42 38 32 33 32 29 24 24 23 24 23 24 24 24 27 30 31 36 38 39 39 39 39 39 40 41 41 41 41 41 40 39 38 38 37 36 36 35 33 33 34
33 33 35 31 38 36 33 31 25 20 21 21 24 21 21 26 30 28 31 31 36 38 38 39 39 38 39 40 40 40 39 38 39 38 37 35 35 34 33 32 31 31 31 32
34 33 28 27 29 38 29 28 28 26 26 25 26 24 26 28 28 29 30 32 35 37 38 39 38 38 40 40 39 38 36 36 36 36 34 31 29 28 26 27 27 26 26 24
30 27 28 24 24 23 26 28 25 26 23 23 24 21 23 23 26 30 30 31 35 37 37 38 38 39 40 39 37 35 34 34 33 33 30 27 24 23 22 21 19 20 21 21
28 26 28 24 25 26 24 24 25 26 25 21 20 19 23 23 26 29 31 32 34 36 37 38 38 40 39 36 34 32 31 31 29 30 25 20 17 18 18 17 18 17 18 19
32 28 25 25 30 27 24 23 24 23 22 22 21 22 24 27 26 31 31 33 33 36 37 38 38 39 36 33 30 28 28 27 27 26 19 15 14 15 13 13 15 16 15 16
34 30 28 30 30 32 27 25 23 24 24 21 20 21 25 25 30 32 32 33 34 35 37 38 39 38 35 31 27 25 24 23 23 19 13 11 11 11 10 11 12 13 14 14
35 31 27 27 27 29 28 27 24 24 23 23 22 22 23 24 28 30 31 33 34 36 37 39 39 37 33 29 25 23 22 20 19 13 10 9 10 10 9 11 12 12 13 13
32 29 28 26 29 30 28 27 26 24 25 24 25 24 23 25 26 27 29 31 34 36 36 39 39 35 31 27 24 22 20 15 15 9 9 10 11 11 11 11 12 12 13 12
30 26 24 22 22 22 26 28 27 26 25 24 25 24 24 29 31 33 34 33 34 36 35 39 38 34 30 26 24 21 17 9 10 9 9 10 11 11 11 12 11 11 11 11
25 24 23 22 22 21 18 20 29 27 27 27 24 24 27 32 32 32 33 34 34 35 34 39 36 32 27 24 23 18 11 8 8 8 8 10 11 12 12 12 11 11 11 12
23 22 20 17 22 16 19 29 23 25 25 26 28 31 32 32 32 32 32 34 34 34 36 38 33 29 25 23 19 13 8 7 6 7 8 11 12 12 12 12 11 11 12 12
25 23 21 16 16 21 28 27 28 25 30 33 32 32 32 31 31 31 34 35 34 34 37 35 31 26 22 18 11 6 6 5 6 8 9 11 12 12 12 11 11 12 12 13
28 27 21 25 18 12 24 29 30 31 27 33 33 33 33 32 29 31 34 36 36 36 34 30 27 22 16 9 6 5 5 5 6 9 10 12 13 13 12 12 12 13 14 13
24 25 21 26 24 26 29 31 30 26 26 34 32 31 32 30 31 34 37 36 34 32 29 26 22 18 11 7 7 6 5 5 9 11 12 12 12 12 13 13 13 14 15 15
20 20 24 27 25 22 31 32 28 30 32 31 31 31 31 31 33 36 36 35 32 30 27 24 19 13 9 9 8 6 5 9 10 11 12 12 12 12 13 14 15 16 15 15
25 26 26 27 27 33 33 32 33 32 31 32 32 32 32 32 33 35 36 35 33 29 25 21 17 11 7 9 8 5 8 10 11 11 11 11 12 12 13 14 15 15 15 14
31 32 31 29 32 32 32 33 33 33 33 33 33 33 32 32 32 32 34 35 33 27 22 17 11 7 7 9 9 9 10 11 11 10 10 11 12 14 14 15 15 16 15 15
30 32 32 32 33 34 33 33 33 34 34 34 33 33 32 32 32 33 33 33 31 25 18 13 10 8 7 9 9 10 10 11 10 11 11 12 13 14 15 15 16 15 15 17
34 32 30 29 33 33 33 34 34 34 34 34 34 33 32 33 32 34 33 34 30 21 15 11 8 7 7 9 9 10 10 11 11 11 11 12 14 15 16 15 15 17 18 18
Wind_Speed
16 17 22 23 20 9 12 8 14 11 6 7 14 17 25 18 12 10 7 6 8 12 7 12 16 18 18 18 18 20 21 19 9 6 3 2 4 5 5 6 8 8 8 9
14 26 21 14 14 11 5 7 12 12 3 3 15 21 24 18 11 4 12 9 7 10 13 13 16 18 18 18 21 23 23 21 16 8 5 4 6 9 10 13 16 17 17 16
19 7 21 20 13 17 10 13 11 11 12 6 10 13 10 3 2 8 9 7 6 10 13 12 16 16 18 22 21 22 21 22 21 17 11 11 10 10 14 15 15 16 16 17
9 7 20 23 20 13 19 10 10 9 8 8 7 13 11 8 8 11 11 10 10 11 8 12 14 16 17 16 18 20 20 20 20 18 21 22 17 16 9 10 10 15 18 18
11 21 19 22 25 17 9 7 10 10 7 5 3 8 7 2 11 13 14 11 9 10 11 13 14 14 13 15 17 18 20 21 20 22 19 18 18 12 10 13 16 17 15 17
4 9 17 11 11 19 8 5 2 3 0 9 11 15 10 5 10 13 12 12 12 11 11 11 12 14 15 15 17 18 21 20 20 20 20 21 20 17 18 19 18 16 13 13
5 8 5 12 13 4 7 10 2 5 7 10 1 5 16 7 7 17 24 19 15 12 12 12 14 14 15 15 14 15 18 19 17 20 21 20 18 18 17 16 15 17 17 16
14 12 15 10 10 10 14 14 8 7 6 4 2 8 5 3 9 10 19 22 16 14 12 12 12 13 16 15 15 16 17 18 17 18 18 17 17 14 13 14 13 13 12 12
14 8 7 12 7 18 8 21 6 3 1 2 5 7 11 5 6 6 22 23 19 15 13 13 11 14 14 14 13 13 15 16 16 15 15 16 16 16 14 13 10 11 12 13
10 7 3 4 8 4 13 15 8 2 5 5 4 7 9 9 3 7 21 24 17 13 13 12 12 14 13 12 12 13 15 15 13 14 14 13 14 13 14 14 16 15 13 13
11 6 5 11 10 14 7 9 3 6 4 3 3 4 4 8 7 14 19 16 17 15 15 14 14 12 12 11 12 13 14 14 13 12 12 15 16 14 12 12 12 13 13 14
5 8 17 6 1 7 5 10 11 12 6 2 2 11 4 7 5 10 12 10 13 14 15 14 16 14 11 11 11 12 12 12 11 11 13 13 12 12 15 15 13 12 13 13
13 6 14 5 2 1 7 6 7 7 4 11 9 6 5 6 8 9 12 12 14 13 13 14 14 12 10 9 10 11 11 10 9 9 10 12 13 14 14 15 14 14 15 15
9 5 9 20 9 10 9 12 11 12 12 9 13 9 3 3 8 7 5 4 9 13 16 15 13 10 9 9 9 8 8 8 8 10 12 12 13 13 14 13 14 14 14 14
5 6 5 3 6 10 11 20 23 24 20 17 13 17 4 3 5 5 4 0 6 11 14 15 14 11 9 9 7 7 7 7 8 9 10 11 11 12 13 14 14 13 13 15
4 5 5 3 4 3 4 9 19 14 10 11 7 7 2 3 4 3 3 3 3 9 14 15 13 11 9 8 6 5 4 5 6 7 8 10 13 13 14 14 16 16 16 16
8 9 7 6 3 3 6 16 17 11 8 11 19 9 7 5 9 6 4 3 3 8 13 15 13 11 10 8 6 4 3 3 3 6 9 11 13 14 15 16 16 16 17 17
9 8 3 5 4 6 2 1 10 10 4 7 12 10 8 9 4 2 3 5 9 4 10 15 14 12 9 6 5 4 2 3 8 10 10 10 12 14 15 16 15 18 15 17
3 8 6 8 9 4 1 7 10 9 6 5 12 9 6 4 3 1 5 4 7 6 13 16 14 11 9 6 4 3 3 7 7 8 10 11 13 15 14 17 18 17 16 18
8 9 4 4 4 7 1 4 8 5 6 11 11 10 8 5 0 4 5 3 2 7 14 15 12 11 9 5 4 3 5 5 8 10 11 12 12 14 18 17 18 13 15 18
5 4 6 4 4 5 4 6 4 8 5 11 11 10 8 4 4 1 2 3 7 9 12 12 11 9 7 5 3 4 4 6 8 9 11 13 15 16 15 15 15 17 18 17
11 11 7 6 5 9 5 5 7 7 8 13 9 7 5 4 3 4 7 9 10 11 10 9 9 6 5 4 3 2 5 6 8 10 12 15 16 15 14 16 17 16 16 18
5 5 5 10 5 2 1 3 12 10 14 8 6 6 5 3 0 1 1 7 10 10 8 6 7 6 4 3 3 4 6 8 9 12 15 17 17 16 15 15 17 17 15 17
3 2 2 5 4 6 11 10 7 8 8 6 3 3 3 2 1 2 2 6 8 9 8 6 7 5 3 1 2 4 7 9 10 14 16 17 17 17 14 12 13 14 16 17
3 8 5 2 4 3 4 5 9 8 7 5 4 2 1 1 3 2 4 7 10 10 8 7 6 3 2 3 5 7 8 8 12 14 16 16 14 15 16 14 14 15 14 16
6 7 9 7 11 5 10 8 6 7 5 5 2 1 1 1 4 3 5 7 10 10 8 7 4 2 3 6 8 9 9 10 12 14 13 14 14 14 15 17 18 15 19 23
Wind_Direction
190 190 192 189 194 200 193 211 225 250 261 288 287 284 283 284 279 275 190 135 94 81 57 50 47 45 46 44 44 41 42 33 58 64 52 0 319 340 7 4 352 340 327 316
187 204 200 177 183 196 195 218 247 283 248 276 311 296 287 280 276 240 174 154 130 101 73 58 53 52 49 50 47 45 44 42 46 65 67 82 79 68 59 47 45 42 44 38
197 180 193 176 170 192 214 221 253 266 324 318 323 291 281 308 166 124 143 146 135 117 111 91 72 62 56 55 53 55 50 49 48 51 66 69 62 51 46 36 37 32 38 36
217 177 184 176 186 183 222 218 243 267 312 283 25 292 285 271 198 161 153 155 151 135 125 105 91 74 68 65 64 63 58 55 50 52 67 71 68 67 44 38 29 29 28 27
186 178 186 178 198 181 220 167 226 251 265 310 262 275 272 211 211 188 176 169 178 152 134 115 100 92 83 77 74 69 66 60 56 59 63 69 66 57 42 31 30 23 17 19
202 157 170 165 185 184 165 93 82 65 75 269 256 221 280 232 220 188 182 178 182 156 143 118 105 101 92 83 76 74 72 62 58 60 56 59 55 44 38 25 22 12 10 8
200 169 164 163 165 125 153 142 253 227 221 239 3 218 248 244 251 195 186 184 182 169 155 136 120 108 102 93 84 77 76 68 62 62 56 51 49 45 39 27 18 12 6 3
170 183 180 171 194 169 189 180 179 202 209 259 124 241 257 266 286 241 183 171 169 172 166 146 130 122 116 103 89 83 77 70 61 60 57 52 48 45 38 28 21 13 2 350
170 185 180 171 136 157 194 209 209 80 32 285 241 278 287 344 23 164 170 162 172 173 166 149 131 129 118 102 92 90 83 73 63 62 60 51 44 40 32 24 19 7 358 353
171 119 166 146 114 100 192 165 181 195 239 245 271 276 252 339 342 170 170 171 169 167 164 148 138 130 113 106 96 83 78 75 66 61 55 48 39 32 26 21 14 3 350 345
146 119 162 156 188 177 157 180 122 158 171 205 313 281 238 297 293 200 184 175 169 173 173 160 146 132 120 105 88 80 71 66 57 57 48 40 30 23 16 14 5 358 346 341
165 124 161 171 185 185 171 177 177 201 206 192 192 271 339 313 294 177 172 168 180 188 180 161 151 140 125 102 84 75 67 63 53 52 46 38 26 17 13 5 354 347 345 341
166 133 139 152 188 230 199 181 155 128 131 205 210 256 358 47 112 149 166 191 197 188 169 157 151 145 124 103 86 73 62 57 57 56 46 33 22 13 6 356 352 350 346 343
137 154 170 194 194 158 191 191 183 186 218 208 226 259 345 66 140 157 151 185 213 192 173 164 155 140 122 102 89 75 64 54 52 43 33 22 14 6 359 343 345 346 339 333
161 160 147 100 169 170 192 197 196 207 215 216 242 233 213 150 213 246 303 174 191 188 173 166 161 146 131 110 94 78 62 49 45 38 25 9 1 357 349 344 341 336 337 336
121 154 121 115 95 156 205 208 202 205 194 215 158 209 179 104 105 80 20 35 175 191 184 171 161 150 136 124 110 95 74 48 42 32 16 5 357 350 345 343 343 341 333 331
169 142 156 179 143 134 264 223 199 199 189 189 217 210 152 111 115 80 43 352 264 218 188 174 163 152 142 139 143 128 89 47 28 25 15 2 349 344 344 340 336 332 333 325
148 131 104 136 136 221 230 240 195 155 152 146 119 122 132 140 118 41 11 326 313 258 180 165 156 145 148 146 132 126 86 26 21 8 353 351 344 343 337 331 328 331 322 319
106 138 134 168 198 300 201 169 153 168 176 156 131 126 118 110 72 15 7 344 300 209 172 162 158 153 137 131 132 115 30 23 4 343 334 347 343 335 326 332 330 317 316 322
66 86 124 149 195 226 216 141 140 123 224 184 151 142 139 127 257 238 334 341 40 140 146 148 141 134 136 135 128 85 26 359 341 336 335 336 328 328 332 316 311 311 313 309
123 75 178 170 238 278 204 149 152 176 212 149 145 140 145 179 203 186 133 140 145 141 137 134 136 140 143 142 95 47 354 336 326 325 331 329 334 323 305 307 309 314 310 303
178 159 172 151 201 255 164 122 184 145 120 138 143 159 178 196 189 158 169 162 156 150 143 142 138 139 132 94 63 0 320 319 328 330 327 326 317 315 310 310 308 304 301 307
195 172 188 190 213 124 97 144 131 134 144 166 169 182 177 172 149 23 258 182 179 171 159 147 141 140 138 117 61 326 321 332 330 330 325 317 314 310 307 305 306 309 310 308
220 170 149 153 184 130 119 119 129 137 140 147 123 141 160 186 130 303 227 189 181 174 173 159 155 165 166 108 293 303 326 334 331 319 315 313 309 312 306 297 294 300 303 300
176 156 159 149 149 116 185 149 151 131 111 105 81 65 49 274 271 258 209 189 187 181 174 166 161 168 240 293 334 334 330 328 318 312 306 303 302 303 310 305 298 299 293 298
192 182 185 219 189 163 187 162 132 128 110 91 78 356 355 283 254 220 214 192 179 177 165 159 166 198 313 328 322 322 328 322 310 310 310 308 310 310 309 305 306 301 306 312